Вернуться в каталог

STARLINK-30755

АктивенСвязьVLEO
NORAD 58186·PAYLOAD·🇺🇸 United States

Запущен Oct 30, 2023 с Cape Canaveral Space Force Station

Loading…

Ближайшие Пролёты (ближайшие 24 часа)

TLE

СвежийSource: CelesTrak SupGP

Эпоха: Sep 14, 2026, 14:16 UTC

1 58186C 23167M   26257.59493056 -.00018947  00000+0 -68759-3 0  2575
2 58186  43.0014 156.3162 0001417 263.0891 276.5323 15.27524463    16

Отслеживайте STARLINK-30755 в реальном времени с AllMySat

Download on the App Store